Regional Weather Roundup
Issued by NWS

Home | Current Version | Previous Version | Graphics & Text | Print | Product List | Glossary On
Versions: 1 2 3 4 5 6 7 8 9 10 11 12 13 14 15 16 17 18 19 20 21 22 23 24 25 26 27 28 29 30 31 32 33 34 35 36 37 38 39 40 41 42 43 44 45 46 47 48 49 50
000
ASUS45 KSLC 231610
RWRUT

UTAH REGIONAL WEATHER ROUNDUP
NATIONAL WEATHER SERVICE SALT LAKE CITY UT
1000 AM MDT SAT MAY 23 2015

UTZ001>011-023>025-231700-

NORTHERN UTAH

CITY           SKY/WX    TMP DP  RH WIND       PRES   REMARKS
BRIGHAM CITY   CLOUDY    50  46  87 CALM      29.95S
HILL AFB       CLOUDY    49  49  99 VRB3      29.94R
LOGAN          LGT RAIN  49  44  83 N3        29.95R
OGDEN          LGT RAIN  50  47  89 CALM      29.93S
PROVO AIRPORT  PTSUNNY   54  43  66 W5        29.94F
SALT LAKE CITY CLOUDY    53  45  74 SE3       29.93S
VERNAL         PTSUNNY   52  41  66 VRB3      29.97S
WENDOVER       CLOUDY    54  48  82 W5        29.90F
HEBER CITY     MOSUNNY   50  37  62 N3        29.95S
WEST JORDAN    MOSUNNY   52  45  76 SE7       29.94S

$$

UTZ012>022-026-027-231700-

SOUTHERN/CENTRAL UTAH

CITY           SKY/WX    TMP DP  RH WIND       PRES   REMARKS
BLANDING       PTSUNNY   52  32  46 S15G23    30.09F
BRYCE CANYON   CLOUDY    37  36  96 SE10      30.01R FOG     WCI  30
CEDAR CITY     CLOUDY    46  42  86 SW10      29.98S
DELTA          CLOUDY    50  41  70 CALM      29.95S
HANKSVILLE     CLOUDY    52  43  71 W9        29.98R
MILFORD        CLOUDY    51  43  74 S15       29.95R
MOAB/CYNLANDS  CLOUDY    59  29  31 SE8       29.94R
PRICE          PTSUNNY   48  41  76 E12       29.97R
ST GEORGE      CLOUDY    55  46  71 N3        30.02S
KANAB          CLOUDY    45  45 100 S10       30.06S

$$

REGIONAL REPORTS     COLORADO/ARIZONA

CITY           SKY/WX    TMP DP  RH WIND       PRES   REMARKS
CRAIG, CO      MOSUNNY   55  40  56 CALM      29.98F
GRAND JUNCTION SUNNY     59  41  51 SE12      29.95S
RIFLE          MOSUNNY   56  39  53 W7        29.95F
MONTROSE       MOSUNNY   58  29  33 VRB6      29.99S
CORTEZ         MOSUNNY   53  33  46 SW15      30.03S
PAGE, AZ       CLOUDY    51  41  68 VRB3      30.00S
GRAND CANYON   PTSUNNY   43  39  86 S6        30.07S
KINGMAN        SUNNY     62  40  44 SW10      30.02R
FLAGSTAFF      CLOUDY    44  33  65 W12G17    30.09R

$$

REGIONAL REPORTS    NEVADA/IDAHO/WYOMING

CITY           SKY/WX    TMP DP  RH WIND       PRES   REMARKS
LAS VEGAS, NV  MOSUNNY   66  41  40 S8        29.92R
ELY            CLOUDY    49  42  77 W10       29.99R
ELKO           CLOUDY    52  44  74 W7        29.98R
POCATELLO, ID  CLOUDY    55  51  86 CALM      29.92S
BURLEY         CLOUDY    52  50  93 W8        29.92R
EVANSTON, WY   CLOUDY    45  38  76 SW5       29.98R
ROCK SPRINGS   SUNNY     50  39  66 VRB5      29.99R
KEMMERER       CLOUDY    45  37  76 E5        30.00R

$$



USA.gov is the U.S. government's official web portal to all federal, state and local government web resources and services.